STARLINK-5785, 56031

Orbit data source: Space-Track

STARLINK-5785, 56031 is a payload satellite owned by SpaceX/Seattle (US) in LEO that was launched on Fri, 24 Mar 2023 UTC via an FALCON 9 launch vehicle from the Air Force Eastern Test Range (AFETR). Payload-class satellites include a variety of spacecraft equipped with specific instruments for various scientific and technological missions. These include communications satellites like Starlink; space stations such as the ISS; scientific satellites like the Hubble; Earth observation satellites from companies like Planet Labs, Umbra, and HawkEye 360; GPS; miniature CubeSats for education and research; and military/defense satellites.

Loading next visibility...
Identifier
56031, 2023-042AX
Orbit
LEO
Country
Flag of USUS
Related business
Manufacturer
SpaceX/Seattle
Mission
Operational Commercial Communications
Bus & Motor
STARLINK, Unknown motor
Mass
305 kg wet, ~290 kg dry
Launch date (UTC)
2023-03-24 (3 years ago)
Launch vehicle
FALCON 9
Launch site
Air Force Eastern Test Range (AFETR)
Object type
Payload
Rocket body
Debris
Shape & HBR
Box + 1 Pan, 10.1 m
Radar Cross Section
11.087 m², Large (>1 m²)

Expand to show TLE details & history
Last TLE update: 2 days ago

TLE from 2 days ago
0 STARLINK-5785
1 56031U 23042AX  26171.38498700 -.00000588  00000-0 -11858-4 0  9992
2 56031  43.0017 185.0631 0001552 274.0333  86.0341 15.27574842178745
Epoch: 2026-06-20T09:14Z
TLE epoch observation values (Epoch: 2026-06-20T09:14:22.876Z)
Latitude
-0.00005°
Longitude
137.86736°
Altitude
482.767 km
Speed
7.626 km/s
True Right ascension
12h 20m 15s
True Declination
0° 00' 00"
Sunlit
Object was in daylight at epoch
Visualization orbit readout
Latitude
Unknown
Longitude
Unknown
Altitude
Unknown
Speed
Unknown
Apparent Right ascension
Unknown
Apparent Declination
Unknown
Sunlit
N/A
Visualization observer readout
Local Sidereal Time
21:29:15
Azimuth
Unknown
Elevation
Unknown
Doppler factor
Unknown
Orbital elements
Apogee altitude
486.075 km
Perigee altitude
483.944 km
Semi-major axis
6,863.146 km
Eccentricity
0.00016
Inclination
43.0017°
RAAN
185.0631°
Arg. of periapsis
274.0333°
True anomaly
86.05184°
Mean anomaly
86.0341°
Eccentric anomaly
86.04297°
Mean motion
3.81732 °/min
Orbital period
94.31 mins
BSTAR
-0.000011858
Loading maneuver chart data...
Computing Atmospheric mass density...
Loading historical data...
Loading historical data...
Loading historical data...
Loading historical data...
Loading historical data...
Loading historical data...
Loading historical data...

Documentation

Showing up to 5 results
|